H-2A R/B (27601 NORAD) Tracking and Keplerian Element Data

This shows tracking and keplerian element data for the satellite.

Feedback or suggestion? Click here.




ElementValue
Catalog27601
NameH-2A R/B
Epoch Orbit99732
Epoch Day15.83932522
Epoch Year2022
RAAN31.1491
Inclination98.1801
Eccentricity0.0072009
Argument of Perigee357.5508
Mean Anonmoly175.2485
Mean Motion14.32028539
Decay Rate1.5E-07
L11 27601U 02056E 22015.83932522 .00000015 00000+0 20236-4 0 9995
L22 27601 98.1801 31.1491 0072009 357.5508 175.2485 14.32028539997324

Live tracking and technical data element details for H-2A R/B (NORAD 27601). H-2A R/B can be tracked NOW for your location showing map with azimuth and elevation plus other details from your city location.

Track the satellite on the map from your city or location and see movement details for azimuth, elevation, latitude, longitude, range, height, and movement on the map or in text.







IsCatalogInMostPopularTable: catalog: 27601, numindb: 328
Update: records affected: 1



GetName: 27601 H-2A R/B

Hit Count: updated at: Mon, 17 Jan 2022 00:54:10 GMT